Weather History for Effingham, IL

Change the Weather History Date:

Sunday, June 23, 2013

  Actual Average (KMTO) Record (KMTO)
Temperature  
Mean Temperature 70 °F 74 °F  
Max Temperature 74 °F 84 °F 96 °F (1953)
Min Temperature 65 °F 64 °F 44 °F (1972)
Degree Days  
Heating Degree Days 0 0  
Month to date heating degree days 14  
Since 1 June heating degree days 14  
Since 1 July heating degree days 5404  
Cooling Degree Days 4 9  
Month to date cooling degree days 154  
Year to date cooling degree days 242  
Since 1 June cooling degree days 154  
Growing Degree Days 20 (Base 50)    
Moisture  
Dew Point 66 °F    
Average Humidity 91    
Maximum Humidity 96    
Minimum Humidity 77    
Precipitation  
Precipitation 1.30 in 0.13 in 1.95 in (1960)
Month to date precipitation 3.29  
Year to date precipitation 17.64  
Sea Level Pressure  
Sea Level Pressure 30.07 in    
Wind  
Wind Speed 6 mph (SSE)    
Max Wind Speed 18 mph    
Max Gust Speed 24 mph    
Visibility 8 miles    
Events Rain , Thunderstorm    
T = Trace of Precipitation, MM = Missing Value Source: NWS Daily Summary

Daily Weather History Graph

Daily Weather History Graph

Search for Another Location

Airport:

Trip Planner

Search our weather history database for the weather conditions in past years. The results will help you decide how hot, cold, wet, or windy it might be!

Date:

Astronomy

Jun. 23, 2013 Rise Set
Actual Time 5:28 AM CDT 8:23 PM CDT
Civil Twilight 4:56 AM CDT 8:56 PM CDT
Nautical Twilight 4:16 AM CDT 9:36 PM CDT
Astronomical Twilight 3:29 AM CDT 10:23 PM CDT
Moon 8:36 PM CDT (6/23) 5:45 AM CDT (6/23)
Length of Visible Light 15h 59m
Length of Day
14h 54m
Full, 100% of the Moon is Illuminated
Jun 23
Full
Jun 29
Last Quarter
Jul 8
New
Jul 15
First Quarter
Jul 22
Full

Hourly Weather History & Observations

Time (CDT) Temp. Dew Point Humidity Pressure Visibility Wind Dir Wind Speed Gust Speed Precip Events Conditions
12:15 AM 68.4 °F 65.8 °F 92% 30.07 in 10.0 mi West 5.8 mph - N/A   Clear
12:35 AM 67.5 °F 65.5 °F 93% 30.06 in 10.0 mi SW 4.6 mph - N/A   Clear
12:55 AM 67.1 °F 65.3 °F 94% 30.08 in 7.0 mi Calm Calm - N/A   Clear
1:15 AM 67.1 °F 65.7 °F 95% 30.08 in 7.0 mi Calm Calm - N/A   Clear
1:35 AM 67.1 °F 65.7 °F 95% 30.07 in 7.0 mi Calm Calm - N/A   Clear
1:55 AM 67.1 °F 65.5 °F 95% 30.08 in 7.0 mi ENE 3.5 mph - N/A   Clear
2:15 AM 67.1 °F 65.7 °F 95% 30.06 in 7.0 mi ENE 8.1 mph - N/A   Clear
2:35 AM 68.0 °F 65.5 °F 92% 30.06 in 10.0 mi ENE 5.8 mph - N/A   Clear
2:55 AM 67.3 °F 65.3 °F 93% 30.06 in 10.0 mi ESE 4.6 mph - N/A   Clear
3:15 AM 66.7 °F 65.3 °F 95% 30.06 in 10.0 mi East 3.5 mph - N/A   Clear
3:35 AM 66.6 °F 65.1 °F 95% 30.06 in 10.0 mi SE 3.5 mph - N/A   Clear
3:55 AM 66.2 °F 64.8 °F 95% 30.06 in 7.0 mi Calm Calm - N/A   Clear
4:15 AM 65.7 °F 64.6 °F 96% 30.07 in 5.0 mi ESE 3.5 mph - N/A   Clear
4:35 AM 65.8 °F 64.8 °F 96% 30.06 in 5.0 mi ESE 4.6 mph - N/A   Clear
4:55 AM 65.7 °F 64.6 °F 96% 30.07 in 10.0 mi SE 3.5 mph - N/A   Clear
5:15 AM 65.8 °F 64.6 °F 96% 30.07 in 7.0 mi East 4.6 mph - N/A   Clear
5:35 AM 65.7 °F 64.4 °F 96% 30.08 in 7.0 mi SE 4.6 mph - N/A   Clear
5:55 AM 66.2 °F 64.9 °F 96% 30.08 in 7.0 mi SSE 3.5 mph - N/A   Mostly Cloudy
6:15 AM 66.6 °F 65.3 °F 96% 30.09 in 7.0 mi Calm Calm - N/A   Mostly Cloudy
6:35 AM 67.3 °F 65.7 °F 95% 30.09 in 7.0 mi SE 5.8 mph - 0.01 in Rain Rain
6:55 AM 68.0 °F 66.2 °F 94% 30.09 in 7.0 mi SE 6.9 mph - 0.01 in Rain , Thunderstorm Light Thunderstorms and Rain
7:15 AM 68.7 °F 66.4 °F 92% 30.09 in 10.0 mi ESE 3.5 mph - N/A Rain , Thunderstorm Light Thunderstorms and Rain
7:35 AM 68.9 °F 66.6 °F 92% 30.09 in 10.0 mi SE 3.5 mph - N/A Rain Light Rain
7:55 AM 69.4 °F 66.7 °F 91% 30.09 in 7.0 mi Calm Calm - N/A Rain , Thunderstorm Rain
8:15 AM 70.0 °F 67.1 °F 91% 30.09 in 10.0 mi South 8.1 mph - N/A Rain , Thunderstorm Light Thunderstorms and Rain
8:35 AM 70.3 °F 64.4 °F 81% 30.09 in 10.0 mi SSE 9.2 mph - N/A Thunderstorm Thunderstorm
8:55 AM 70.3 °F 64.9 °F 83% 30.08 in 10.0 mi South 8.1 mph - N/A Thunderstorm Mostly Cloudy
9:15 AM 72.0 °F 65.7 °F 80% 30.08 in 10.0 mi SSE 6.9 mph - N/A   Scattered Clouds
9:35 AM 73.4 °F 65.8 °F 77% 30.09 in 10.0 mi South 4.6 mph - N/A   Mostly Cloudy
9:55 AM 73.4 °F 65.7 °F 77% 30.09 in 10.0 mi SSE 10.4 mph - N/A   Mostly Cloudy
10:15 AM 74.5 °F 66.9 °F 77% 30.09 in 10.0 mi SSE 9.2 mph 18.4 mph N/A Thunderstorm Mostly Cloudy
10:35 AM 74.5 °F 67.3 °F 78% 30.10 in 10.0 mi South 12.7 mph 21.9 mph N/A Thunderstorm Mostly Cloudy
10:55 AM 71.8 °F 67.1 °F 85% 30.12 in 10.0 mi South 17.3 mph 20.7 mph N/A Thunderstorm Overcast
11:15 AM 69.8 °F 67.6 °F 93% 30.13 in 7.0 mi SSE 12.7 mph 21.9 mph 0.01 in Rain , Thunderstorm Light Thunderstorms and Rain
11:35 AM 69.8 °F 68.0 °F 94% 30.13 in 7.0 mi SSE 11.5 mph - 0.01 in Rain , Thunderstorm Light Thunderstorms and Rain
11:55 AM 68.9 °F 66.7 °F 93% 30.13 in 3.0 mi SSE 18.4 mph 24.2 mph 0.21 in Rain , Thunderstorm Heavy Thunderstorms and Rain
12:15 PM 68.4 °F 66.7 °F 95% 30.13 in 7.0 mi South 13.8 mph 21.9 mph 0.04 in Rain , Thunderstorm Rain
12:35 PM 67.6 °F 65.8 °F 94% 30.13 in 7.0 mi South 9.2 mph 16.1 mph 0.09 in Rain , Thunderstorm Heavy Thunderstorms and Rain
12:55 PM 66.9 °F 64.8 °F 93% 30.13 in 4.0 mi South 16.1 mph 23.0 mph 0.21 in Rain , Thunderstorm Rain
1:15 PM 66.2 °F 64.4 °F 94% 30.13 in 4.0 mi SSE 11.5 mph 19.6 mph 0.07 in Rain , Thunderstorm Thunderstorms and Rain
1:35 PM 66.7 °F 65.1 °F 95% 30.14 in 7.0 mi SSE 10.4 mph 17.3 mph 0.11 in Rain , Thunderstorm Thunderstorms and Rain
1:55 PM 67.3 °F 65.5 °F 94% 30.13 in 5.0 mi SE 13.8 mph - 0.19 in Rain , Thunderstorm Heavy Thunderstorms and Rain
2:15 PM 67.5 °F 66.2 °F 96% 30.13 in 4.0 mi SSE 10.4 mph - 0.09 in Rain Heavy Rain
2:35 PM 67.8 °F 66.2 °F 95% 30.11 in 5.0 mi SE 8.1 mph - 0.16 in Rain Heavy Rain
2:55 PM 68.0 °F 66.6 °F 95% 30.10 in 3.0 mi SSE 8.1 mph - 0.30 in Rain , Thunderstorm Heavy Thunderstorms and Rain
3:15 PM 68.4 °F 67.1 °F 96% 30.09 in 4.0 mi South 9.2 mph - 0.10 in Rain , Thunderstorm Rain
3:35 PM 68.5 °F 66.9 °F 95% 30.08 in 5.0 mi SSE 5.8 mph - 0.15 in Rain Heavy Rain
3:55 PM 68.9 °F 67.3 °F 95% 30.04 in 4.0 mi ESE 11.5 mph - 0.38 in Rain Light Rain
4:15 PM 70.7 °F 68.2 °F 92% 30.02 in 10.0 mi SE 5.8 mph - N/A Rain Light Rain
4:35 PM 71.6 °F 69.1 °F 92% 30.01 in 10.0 mi South 5.8 mph - N/A   Scattered Clouds
4:55 PM 73.6 °F 70.0 °F 88% 30.01 in 10.0 mi South 8.1 mph - N/A   Scattered Clouds
5:15 PM 73.8 °F 70.0 °F 88% 30.02 in 10.0 mi SE 9.2 mph - N/A   Clear
5:35 PM 73.6 °F 70.0 °F 88% 30.03 in 10.0 mi SSE 5.8 mph - N/A   Clear
5:55 PM 73.8 °F 70.0 °F 88% 30.03 in 10.0 mi South 5.8 mph - N/A   Scattered Clouds
6:15 PM 73.8 °F 70.3 °F 89% 30.04 in 10.0 mi SSE 4.6 mph - N/A   Mostly Cloudy
6:35 PM 74.3 °F 70.9 °F 89% 30.03 in 10.0 mi SE 4.6 mph - N/A   Scattered Clouds
6:55 PM 74.1 °F 70.9 °F 90% 30.02 in 7.0 mi SE 9.2 mph - N/A   Clear
7:15 PM 73.8 °F 70.2 °F 88% 30.04 in 10.0 mi SSE 5.8 mph - N/A   Mostly Cloudy
7:35 PM 73.4 °F 68.7 °F 85% 30.04 in 10.0 mi SSE 5.8 mph - N/A   Overcast
7:55 PM 73.2 °F 68.5 °F 85% 30.06 in 10.0 mi SW 8.1 mph - N/A   Overcast
8:15 PM 72.5 °F 68.2 °F 86% 30.05 in 10.0 mi SW 6.9 mph - N/A   Mostly Cloudy
8:35 PM 70.9 °F 65.1 °F 82% 30.05 in 10.0 mi SW 6.9 mph - N/A   Scattered Clouds
8:55 PM 69.4 °F 64.8 °F 85% 30.05 in 10.0 mi South 4.6 mph - N/A   Clear
9:15 PM 68.9 °F 64.9 °F 87% 30.05 in 10.0 mi South 5.8 mph - N/A   Clear
9:35 PM 68.9 °F 64.9 °F 87% 30.05 in 10.0 mi SSE 4.6 mph - N/A   Clear
9:55 PM 68.5 °F 64.8 °F 88% 30.05 in 10.0 mi South 4.6 mph - N/A   Clear
10:15 PM 68.2 °F 64.6 °F 88% 30.04 in 10.0 mi South 4.6 mph - N/A   Clear
10:35 PM 68.2 °F 64.6 °F 88% 30.04 in 10.0 mi SSE 4.6 mph - N/A   Clear
10:55 PM 67.6 °F 64.6 °F 90% 30.03 in 10.0 mi SSE 3.5 mph - N/A   Clear
11:15 PM 67.5 °F 64.6 °F 90% 30.05 in 10.0 mi SSE 4.6 mph - N/A   Clear
11:35 PM 67.6 °F 64.6 °F 90% 30.05 in 10.0 mi South 5.8 mph - N/A   Clear
11:55 PM 67.5 °F 64.8 °F 91% 30.06 in 10.0 mi SSW 4.6 mph - N/A   Clear